Home > Weather > Randers > Past weeks

Flag for Denmark Past Weather in Randers, Denmark — Yesterday and Last 2 Weeks

Now
63 °F

Passing clouds.


Feels Like: 63 °F
Forecast: 54 / 68 °F
Wind: 13 mph from West

Location: Tirstrup

Current Time: Aug 29, 2016 at 4:21:24 AM

Latest Report: Aug 29, 2016 at 3:50 AM


Visibility: N/A

Pressure: 29.71 "Hg

Humidity: 77%

Dew Point: 55 °F

Location of RandersLocation

Past Weather in Randers — Graph

°F

Randers Temperature Yesterday

Maximum temperature yesterday: 70 °F (at 6:20 PM)
Minimum temperature yesterday: 54 °F (at 12:20 AM)
Average temperature yesterday: 63 °F

High & Low Weather Summary for the Past Weeks

 TemperatureHumidityPressure
High86 °F (Aug 26, 2:50 PM)94% (Aug 16, 7:20 AM)30.30 "Hg (Aug 16, 7:20 AM)
Low46 °F (Aug 17, 4:50 AM)27% (Aug 17, 6:50 PM)29.71 "Hg (Aug 29, 2:20 AM)
Average63 °F70%30.04 "Hg
* Reported Aug 14 3:20 AM — Aug 29 3:20 AM, Randers, Weather by CustomWeather, © 2016

Note: Actual official high and low records may vary slightly from our data, if they occured in-between our weather recording intervals... More about our weather records

Advertising

Randers Weather History for the Previous 24 Hours

Scroll right to see more
 ConditionsComfort  
Time TempWeatherWind HumidityBarometerVisibility
3:20 AM
Mon, Aug 29
64 °FPassing clouds.12 mph78%29.71 "HgN/A
2:50 AM64 °FPassing clouds.6 mph83%29.71 "HgN/A
2:20 AM66 °FPassing clouds.3 mph83%29.71 "Hg5 mi
1:50 AM66 °FPassing clouds.5 mph83%29.74 "Hg5 mi
1:20 AM66 °FPassing clouds.3 mph83%29.74 "Hg5 mi
12:50 AM66 °FPartly cloudy.3 mph83%29.74 "HgN/A
12:20 AM66 °FPassing clouds.5 mph83%29.77 "HgN/A
11:50 PM
Sun, Aug 28
66 °FPassing clouds.3 mph83%29.77 "HgN/A
11:20 PM66 °FPassing clouds.3 mph83%29.77 "HgN/A
10:50 PM66 °FPassing clouds.5 mph83%29.77 "HgN/A
10:20 PM66 °FSprinkles. Partly cloudy.2 mph83%29.77 "HgN/A
9:50 PM66 °FPassing clouds.2 mph83%29.80 "HgN/A
9:20 PM66 °FPartly sunny.5 mph83%29.77 "HgN/A
8:50 PM66 °FPartly sunny.6 mph83%29.80 "HgN/A
8:20 PM66 °FPartly sunny.6 mph83%29.80 "HgN/A
7:50 PM66 °FPartly sunny.6 mph83%29.80 "HgN/A
7:20 PM68 °FPassing clouds.5 mph78%29.80 "HgN/A
6:50 PM68 °FPassing clouds.7 mph78%29.80 "HgN/A
6:20 PM70 °FPassing clouds.6 mph73%29.83 "HgN/A
5:50 PM68 °FScattered clouds.5 mph78%29.83 "HgN/A
5:20 PM68 °FPartly sunny.6 mph78%29.83 "HgN/A
4:50 PM68 °FScattered clouds.7 mph83%29.83 "HgN/A
2:20 PM68 °FMore clouds than sun.7 mph73%29.89 "HgN/A
1:50 PM68 °FSprinkles. More clouds than sun.7 mph73%29.92 "HgN/A
1:20 PM68 °FLots of rain. More clouds than sun.7 mph69%29.92 "Hg1 mi
12:50 PM68 °FMostly cloudy.7 mph69%29.92 "HgN/A
11:50 AM64 °FOvercast.9 mph73%29.92 "HgN/A
11:20 AM63 °FMore clouds than sun.14 mph77%29.92 "HgN/A
10:50 AM63 °FMore clouds than sun.16 mph77%29.95 "HgN/A
10:30 AM63 °FBroken clouds.16 mph77%29.95 "HgN/A
9:50 AM63 °FMore clouds than sun.14 mph77%29.92 "HgN/A
9:20 AM63 °FMore clouds than sun.12 mph77%29.89 "HgN/A
8:50 AM63 °FBroken clouds.9 mph73%29.95 "HgN/A
8:20 AM61 °FBroken clouds.9 mph83%29.98 "HgN/A
7:50 AM61 °FBroken clouds.6 mph83%29.98 "HgN/A
7:20 AM61 °FPartly sunny.6 mph77%29.98 "HgN/A
4:20 AM59 °FPassing clouds.2 mph82%30.04 "HgN/A
Weather by CustomWeather, © 2016

See weather overviewHow to use our weather pages